Time,TemperatureF,DewpointF,PressureIn,WindDirection,WindDirectionDegrees,WindSpeedMPH,WindSpeedGustMPH,Humidity,HourlyPrecipIn,Conditions,Clouds,dailyrainin,SolarRadiationWatts/m^2,SoftwareType,DateUTC
2013-10-18 00:00:00,76.1,71.3,29.89,SE,135,0.0,0.0,85,0.00,,OVC075,0.00,0.00,VWS V14.00,2013-10-18 04:00:00,
2013-10-18 00:30:00,75.5,71.0,29.89,SE,135,0.0,0.0,86,0.00,,OVC075,0.00,0.00,VWS V14.00,2013-10-18 04:30:00,
2013-10-18 01:00:00,75.2,70.7,29.87,SE,135,0.0,0.0,86,0.00,,OVC075,0.00,0.00,VWS V14.00,2013-10-18 05:00:00,
2013-10-18 01:30:00,74.4,70.3,29.87,SE,135,0.0,0.0,87,0.00,,OVC075,0.00,0.00,VWS V14.00,2013-10-18 05:30:00,
2013-10-18 02:00:00,73.5,69.7,29.87,SE,135,0.0,0.0,88,0.00,,OVC075,0.00,0.00,VWS V14.00,2013-10-18 06:00:00,
2013-10-18 02:30:00,73.0,69.2,29.87,SE,135,0.0,0.0,88,0.00,,OVC075,0.00,0.00,VWS V14.00,2013-10-18 06:30:00,
2013-10-18 03:00:00,72.7,68.9,29.87,SE,135,0.0,0.0,88,0.00,,OVC075,0.00,0.00,VWS V14.00,2013-10-18 07:00:00,
2013-10-18 03:30:00,72.5,69.1,29.86,SE,135,0.0,0.0,89,0.00,,OVC075,0.00,0.00,VWS V14.00,2013-10-18 07:30:00,
2013-10-18 04:00:00,72.7,69.3,29.86,SE,135,0.0,0.0,89,0.00,,OVC075,0.00,0.00,VWS V14.00,2013-10-18 08:00:00,
2013-10-18 04:30:00,72.5,69.1,29.86,SE,135,0.0,0.0,89,0.00,,OVC075,0.00,0.00,VWS V14.00,2013-10-18 08:30:00,
2013-10-18 05:00:00,72.4,69.0,29.86,SE,135,0.0,0.0,89,0.00,,OVC075,0.00,0.00,VWS V14.00,2013-10-18 09:00:00,
2013-10-18 05:30:00,72.1,68.7,29.86,SE,135,0.0,0.0,89,0.00,,OVC075,0.00,0.00,VWS V14.00,2013-10-18 09:30:00,
2013-10-18 06:00:00,72.2,68.8,29.87,SE,135,0.0,0.0,89,0.00,,OVC075,0.00,0.00,VWS V14.00,2013-10-18 10:00:00,
2013-10-18 06:30:00,72.1,68.7,29.87,SE,135,0.0,0.0,89,0.00,,OVC075,0.00,0.00,VWS V14.00,2013-10-18 10:30:00,
2013-10-18 07:00:00,71.7,68.3,29.88,SE,135,0.0,0.0,89,0.00,,OVC075,0.00,0.00,VWS V14.00,2013-10-18 11:00:00,
2013-10-18 07:30:00,71.6,68.2,29.89,SE,135,0.0,0.0,89,0.00,,OVC075,0.00,0.00,VWS V14.00,2013-10-18 11:30:00,
2013-10-18 08:00:00,72.2,69.1,29.90,SE,135,0.0,0.0,90,0.00,,OVC075,0.00,54.00,VWS V14.00,2013-10-18 12:00:00,
2013-10-18 08:30:00,74.2,71.1,29.91,SE,135,0.0,3.0,90,0.00,,OVC075,0.00,86.00,VWS V14.00,2013-10-18 12:30:00,
2013-10-18 09:00:00,76.6,72.8,29.92,SE,135,1.0,3.0,88,0.00,,OVC075,0.00,108.00,VWS V14.00,2013-10-18 13:00:00,
2013-10-18 09:30:00,78.8,73.2,29.93,SE,135,0.0,3.0,83,0.00,,OVC075,0.00,123.00,VWS V14.00,2013-10-18 13:30:00,
2013-10-18 10:00:00,81.7,74.2,29.93,SE,135,0.0,3.0,78,0.00,,OVC075,0.00,132.00,VWS V14.00,2013-10-18 14:00:00,
2013-10-18 10:30:00,82.7,74.0,29.94,SE,135,0.0,5.0,75,0.00,,OVC075,0.00,135.00,VWS V14.00,2013-10-18 14:30:00,
2013-10-18 11:00:00,83.7,72.9,29.94,SE,135,1.0,7.0,70,0.00,,OVC075,0.00,141.00,VWS V14.00,2013-10-18 15:00:00,
2013-10-18 11:30:00,83.8,73.4,29.94,SE,135,3.0,10.0,71,0.00,,OVC075,0.00,149.00,VWS V14.00,2013-10-18 15:30:00,
2013-10-18 12:00:00,84.8,73.1,29.92,SSE,158,3.0,11.0,68,0.00,,OVC075,0.00,133.00,VWS V14.00,2013-10-18 16:00:00,
2013-10-18 12:30:00,85.6,73.4,29.91,SSE,158,5.0,12.0,67,0.00,,OVC075,0.00,155.00,VWS V14.00,2013-10-18 16:30:00,
2013-10-18 13:00:00,85.2,73.0,29.90,SE,135,6.0,13.0,67,0.00,,OVC075,0.00,146.00,VWS V14.00,2013-10-18 17:00:00,
2013-10-18 13:30:00,85.4,71.8,29.90,SE,135,7.0,14.0,64,0.00,,OVC075,0.00,139.00,VWS V14.00,2013-10-18 17:30:00,
2013-10-18 14:00:00,86.7,72.6,29.88,SSE,158,5.0,13.0,63,0.00,,OVC075,0.00,137.00,VWS V14.00,2013-10-18 18:00:00,
2013-10-18 14:30:00,84.7,73.0,29.86,SSE,158,6.0,16.0,68,0.00,,OVC075,0.00,105.00,VWS V14.00,2013-10-18 18:30:00,
2013-10-18 15:00:00,84.9,72.7,29.86,SE,135,5.0,14.0,67,0.00,,OVC075,0.00,85.00,VWS V14.00,2013-10-18 19:00:00,
2013-10-18 15:30:00,84.6,72.4,29.85,SSE,158,6.0,15.0,67,0.00,,OVC075,0.00,105.00,VWS V14.00,2013-10-18 19:30:00,
2013-10-18 16:00:00,85.0,73.7,29.85,SSE,158,6.0,13.0,69,0.00,,OVC075,0.00,113.00,VWS V14.00,2013-10-18 20:00:00,
2013-10-18 16:30:00,84.5,73.2,29.85,SSE,158,6.0,13.0,69,0.00,,OVC075,0.00,87.00,VWS V14.00,2013-10-18 20:30:00,
2013-10-18 17:00:00,84.2,72.1,29.86,SSE,158,6.0,13.0,67,0.00,,OVC075,0.00,73.00,VWS V14.00,2013-10-18 21:00:00,
2013-10-18 17:30:00,83.8,71.7,29.86,SSE,158,5.0,13.0,67,0.00,,OVC075,0.00,73.00,VWS V14.00,2013-10-18 21:30:00,
2013-10-18 18:00:00,83.1,71.9,29.87,SSE,158,6.0,13.0,69,0.00,,OVC075,0.00,61.00,VWS V14.00,2013-10-18 22:00:00,
2013-10-18 18:30:00,82.3,72.0,29.88,SSE,158,5.0,13.0,71,0.00,,OVC075,0.00,39.00,VWS V14.00,2013-10-18 22:30:00,
2013-10-18 19:00:00,81.3,71.8,29.88,SSE,158,3.0,10.0,73,0.00,,OVC075,0.00,5.00,VWS V14.00,2013-10-18 23:00:00,
2013-10-18 19:30:00,80.8,72.1,29.88,SSE,158,2.0,10.0,75,0.00,,OVC075,0.00,0.00,VWS V14.00,2013-10-18 23:30:00,
2013-10-18 20:00:00,80.4,71.4,29.89,SSE,158,2.0,7.0,74,0.00,,OVC075,0.00,0.00,VWS V14.00,2013-10-19 00:00:00,
2013-10-18 20:30:00,80.1,71.5,29.90,SSE,158,1.0,7.0,75,0.00,,OVC075,0.00,0.00,VWS V14.00,2013-10-19 00:30:00,
2013-10-18 21:00:00,79.8,71.9,29.90,SSE,158,1.0,6.0,77,0.00,,OVC075,0.00,0.00,VWS V14.00,2013-10-19 01:00:00,
2013-10-18 21:30:00,79.4,71.9,29.90,SSE,158,0.0,4.0,78,0.00,,OVC075,0.00,0.00,VWS V14.00,2013-10-19 01:30:00,
2013-10-18 22:00:00,79.0,71.9,29.91,SSE,158,0.0,5.0,79,0.00,,OVC075,0.00,0.00,VWS V14.00,2013-10-19 02:00:00,
2013-10-18 22:30:00,79.0,71.9,29.92,SSE,158,1.0,5.0,79,0.00,,OVC075,0.00,0.00,VWS V14.00,2013-10-19 02:30:00,
2013-10-18 23:00:00,78.9,71.8,29.92,SSE,158,0.0,5.0,79,0.00,,OVC075,0.00,0.00,VWS V14.00,2013-10-19 03:00:00,
2013-10-18 23:30:00,78.7,71.6,29.92,SSE,158,1.0,5.0,79,0.00,,OVC075,0.00,0.00,VWS V14.00,2013-10-19 03:30:00,